Abilene, TX

1:17 AM CST on December 16, 2019 (GMT -0600)
Abilene Regional

Weather History for KABI - October, 2019

Change the Weather History Date:

Monday, October 14, 2019

  Actual Average Record
Temperature  
Mean Temperature 70 °F 66 °F  
Max Temperature 74 °F 78 °F 94 °F (1972)
Min Temperature 66 °F 55 °F 38 °F (1969)
Degree Days  
Heating Degree Days 0 2  
Month to date heating degree days 29 24  
Since 1 July heating degree days 29 35  
Cooling Degree Days 5 4  
Month to date cooling degree days 133 72  
Year to date cooling degree days 2866 2343  
Growing Degree Days 20 (Base 50)    
Moisture  
Dew Point 53 °F    
Average Humidity 55    
Maximum Humidity 73    
Minimum Humidity 37    
Precipitation  
Precipitation 0.01 in 0.11 in 2.37 in (1923)
Month to date precipitation 0.20 1.31  
Year to date precipitation 20.01 20.51  
Sea Level Pressure  
Sea Level Pressure 29.90 in    
Wind  
Wind Speed 11 mph (South)    
Max Wind Speed 21 mph    
Max Gust Speed 27 mph    
Visibility 10 miles    
Events Rain    
T = Trace of Precipitation, MM = Missing Value Source: NWS Daily Summary

Daily Weather History Graph

Daily Weather History Graph

Search for Another Location

Airport or City:

Astronomy

Oct. 14, 2019 Rise Set
Actual Time 7:41 AM CDT 7:07 PM CDT
Civil Twilight 7:16 AM CDT 7:32 PM CDT
Nautical Twilight 6:48 AM CDT 8:00 PM CDT
Astronomical Twilight 6:19 AM CDT 8:28 PM CDT
Moon 7:59 PM CDT (10/14) 8:15 AM CDT (10/14)
Length of Visible Light 12h 15m
Length of Day
11h 25m
Full, 99% of the Moon is Illuminated
Oct 14
Full
Oct 21
Last Quarter
Oct 27
New
Nov 4
First Quarter
Nov 12
Full

Hourly Weather History & Observations

Time (CDT) Temp. Dew Point Humidity Pressure Visibility Wind Dir Wind Speed Gust Speed Precip Events Conditions
12:52 AM 70.0 °F 42.1 °F 36% 29.90 in 10.0 mi SSE 6.9 mph - N/A   Clear
1:52 AM 69.1 °F 43.0 °F 39% 29.90 in 10.0 mi SSW 8.1 mph - N/A   Clear
2:52 AM 68.0 °F 43.0 °F 40% 29.90 in 10.0 mi SSW 9.2 mph - N/A   Mostly Cloudy
3:52 AM 68.0 °F 43.0 °F 40% 29.90 in 10.0 mi SW 8.1 mph - N/A   Clear
4:52 AM 68.0 °F 45.0 °F 43% 29.87 in 10.0 mi South 10.4 mph - N/A   Clear
5:52 AM 68.0 °F 44.1 °F 42% 29.88 in 10.0 mi South 9.2 mph - N/A   Clear
6:52 AM 68.0 °F 43.0 °F 40% 29.91 in 10.0 mi South 11.5 mph - N/A   Clear
7:52 AM 66.9 °F 44.1 °F 44% 29.92 in 10.0 mi SSW 15.0 mph - N/A   Clear
9:52 AM 71.1 °F 50.0 °F 47% 29.94 in 10.0 mi SSW 16.1 mph 26.5 mph N/A   Clear
10:52 AM 72.0 °F 52.0 °F 49% 29.95 in 10.0 mi SSW 16.1 mph - N/A   Clear
11:52 AM 70.0 °F 57.0 °F 63% 29.96 in 10.0 mi SW 9.2 mph - 0.00 in Rain Light Rain
12:52 PM 68.0 °F 59.0 °F 73% 29.94 in 10.0 mi South 13.8 mph - 0.01 in Rain Light Rain
1:52 PM 70.0 °F 60.1 °F 71% 29.91 in 10.0 mi SSW 13.8 mph - 0.00 in   Mostly Cloudy
2:52 PM 73.0 °F 60.1 °F 64% 29.88 in 10.0 mi South 11.5 mph - N/A   Partly Cloudy
3:52 PM 73.0 °F 60.1 °F 64% 29.86 in 10.0 mi SSW 11.5 mph - N/A   Clear
4:52 PM 73.9 °F 60.1 °F 62% 29.85 in 10.0 mi SSW 9.2 mph - 0.00 in   Clear
5:52 PM 73.9 °F 61.0 °F 64% 29.86 in 10.0 mi South 10.4 mph - N/A   Partly Cloudy
6:52 PM 73.0 °F 61.0 °F 66% 29.86 in 10.0 mi South 6.9 mph - N/A   Overcast
7:52 PM 71.1 °F 61.0 °F 70% 29.86 in 10.0 mi SSE 5.8 mph - N/A   Scattered Clouds
8:52 PM 70.0 °F 61.0 °F 73% 29.87 in 10.0 mi SSE 9.2 mph - N/A   Clear
9:52 PM 70.0 °F 61.0 °F 73% 29.88 in 10.0 mi SSE 5.8 mph - N/A   Partly Cloudy
10:52 PM 70.0 °F 61.0 °F 73% 29.88 in 10.0 mi SSE 6.9 mph - N/A   Partly Cloudy
11:52 PM 69.1 °F 62.1 °F 78% 29.88 in 10.0 mi SSE 8.1 mph - N/A   Mostly Cloudy